ATLAS 5 CENTAUR DEB, 46602

Orbit data source: Space-Track

ATLAS 5 CENTAUR DEB, 46602 is space debris in HEO originally from a launch on Wed, 17 Oct 2018 UTC launched from the Air Force Eastern Test Range (AFETR). Debris objects in space refer to the collection of defunct objects orbiting the Earth. Examples of debris include non-operational satellites, rocket bodies, and fragments generated from explosions, collisions, or faulty payload assembly.

Loading next visibility...
Identifier
46602, 2018-079CA
Orbit
HEO
Country
Flag of USUS
Related business
Flag of USUnited Launch Alliance/Lockheed Martin (US)
Manufacturer
ULA Decatur
Mission
Spacecraft
Bus & Motor
Unknown
Mass
Unknown
Launch date (UTC)
2018-10-17 (8 years ago)
Launch vehicle
Unknown
Launch site
Air Force Eastern Test Range (AFETR)
Object type
Payload
Rocket body
Debris
Shape & HBR
Unknown shape, 1.1 m
Radar Cross Section
Medium (>0.1 m² and <1 m²)

Expand to show TLE details & history
Last TLE update: 3 days ago

TLE from 3 days ago
0 ATLAS 5 CENTAUR DEB
1 46602U 18079CA  26251.49743763 -.00000178  00000-0  00000-0 0  9999
2 46602  13.5966  32.3140 4672383 315.5819  15.1666  1.79049432 41478
Epoch: 2026-09-08T11:56Z
TLE epoch observation values (Epoch: 2026-09-08T11:56:18.611Z)
Latitude
-0.00002°
Longitude
-134.27202°
Altitude
10,383.205 km
Speed
5.801 km/s
True Right ascension
02h 09m 28s
True Declination
0° 00' 00"
Sunlit
Object was in daylight at epoch
Visualization orbit readout
Latitude
Unknown
Longitude
Unknown
Altitude
Unknown
Speed
Unknown
Apparent Right ascension
Unknown
Apparent Declination
Unknown
Sunlit
N/A
Visualization observer readout
Local Sidereal Time
05:00:51
Azimuth
Unknown
Elevation
Unknown
Doppler factor
Unknown
Orbital elements
Apogee altitude
35,657.573 km
Perigee altitude
8,885.244 km
Semi-major axis
28,649.546 km
Eccentricity
0.46724
Inclination
13.5966°
RAAN
32.314°
Arg. of periapsis
315.5819°
True anomaly
44.2746°
Mean anomaly
15.1666°
Eccentric anomaly
27.54776°
Mean motion
0.44758 °/min
Orbital period
804.33 mins
BSTAR
0
Loading maneuver chart data...
Computing Atmospheric mass density...

Documentation

Showing up to 5 results
|